TimeCDT,TemperatureF,Dew PointF,Humidity,Sea Level PressureIn,VisibilityMPH,Wind Direction,Wind SpeedMPH,Gust SpeedMPH,PrecipitationIn,Events,Conditions,WindDirDegrees,DateUTC
12:15 AM,71.6,66.2,83,30.00,10.0,WNW,13.8,-,N/A,,Mostly Cloudy,290,2012-09-07 05:15:00
12:35 AM,73.4,64.4,73,29.97,10.0,West,10.4,16.1,N/A,,Mostly Cloudy,270,2012-09-07 05:35:00
12:55 AM,73.4,64.4,73,29.97,10.0,West,10.4,-,N/A,,Partly Cloudy,270,2012-09-07 05:55:00
1:15 AM,73.4,66.2,78,29.96,10.0,WSW,8.1,-,N/A,,Clear,240,2012-09-07 06:15:00
1:35 AM,73.4,66.2,78,29.96,10.0,SW,5.8,-,N/A,,Scattered Clouds,230,2012-09-07 06:35:00
1:55 AM,73.4,66.2,78,29.95,10.0,South,6.9,-,N/A,,Mostly Cloudy,190,2012-09-07 06:55:00
2:15 AM,71.6,68.0,88,29.93,10.0,South,8.1,-,N/A,,Partly Cloudy,170,2012-09-07 07:15:00
2:35 AM,71.6,66.2,83,29.92,10.0,South,9.2,-,N/A,,Clear,180,2012-09-07 07:35:00
2:55 AM,71.6,68.0,88,29.90,10.0,South,9.2,-,N/A,,Clear,180,2012-09-07 07:55:00
3:15 AM,71.6,68.0,88,29.88,10.0,SSW,5.8,-,N/A,,Clear,200,2012-09-07 08:15:00
3:35 AM,71.6,68.0,88,29.87,10.0,SE,5.8,-,N/A,,Clear,140,2012-09-07 08:35:00
3:55 AM,71.6,68.0,88,29.88,10.0,North,4.6,-,N/A,,Clear,10,2012-09-07 08:55:00
4:15 AM,69.8,68.0,94,29.87,10.0,NE,5.8,-,N/A,,Clear,40,2012-09-07 09:15:00
4:35 AM,69.8,68.0,94,29.88,10.0,NNW,3.5,-,N/A,,Clear,340,2012-09-07 09:35:00
4:55 AM,69.8,68.0,94,29.88,10.0,Calm,Calm,-,N/A,,Clear,0,2012-09-07 09:55:00
5:15 AM,69.8,68.0,94,29.88,10.0,Calm,Calm,-,N/A,,Clear,0,2012-09-07 10:15:00
5:35 AM,69.8,68.0,94,29.88,10.0,Calm,Calm,-,N/A,,Clear,0,2012-09-07 10:35:00
5:55 AM,69.8,68.0,94,29.87,10.0,Calm,Calm,-,N/A,,Clear,0,2012-09-07 10:55:00
6:15 AM,69.8,66.2,88,29.87,10.0,Calm,Calm,-,N/A,,Clear,0,2012-09-07 11:15:00
6:35 AM,69.8,66.2,88,29.88,10.0,Calm,Calm,-,N/A,,Clear,0,2012-09-07 11:35:00
6:55 AM,68.0,66.2,94,29.89,10.0,East,6.9,-,N/A,,Clear,100,2012-09-07 11:55:00
7:15 AM,69.8,68.0,94,29.90,10.0,East,5.8,-,N/A,,Clear,100,2012-09-07 12:15:00
7:35 AM,69.8,68.0,94,29.91,10.0,ESE,8.1,-,N/A,,Partly Cloudy,110,2012-09-07 12:35:00
7:55 AM,71.6,69.8,94,29.91,10.0,East,6.9,-,N/A,,Clear,100,2012-09-07 12:55:00
8:15 AM,71.6,69.8,94,29.92,10.0,SE,8.1,-,N/A,,Clear,130,2012-09-07 13:15:00
8:35 AM,73.4,69.8,88,29.92,10.0,SE,6.9,-,N/A,,Clear,130,2012-09-07 13:35:00
8:55 AM,75.2,69.8,83,29.92,10.0,SE,8.1,-,N/A,,Clear,140,2012-09-07 13:55:00
9:15 AM,75.2,69.8,83,29.92,10.0,SSE,8.1,-,N/A,,Clear,150,2012-09-07 14:15:00
9:35 AM,78.8,69.8,74,29.92,10.0,SSE,10.4,-,N/A,,Clear,150,2012-09-07 14:35:00
9:55 AM,80.6,71.6,74,29.91,10.0,SSE,9.2,-,N/A,,Clear,160,2012-09-07 14:55:00
10:15 AM,80.6,69.8,70,29.91,10.0,South,10.4,-,N/A,,Clear,170,2012-09-07 15:15:00
10:35 AM,80.6,71.6,74,29.91,10.0,South,11.5,-,N/A,,Clear,180,2012-09-07 15:35:00
10:55 AM,80.6,71.6,74,29.90,10.0,South,12.7,-,N/A,,Clear,170,2012-09-07 15:55:00
11:15 AM,82.4,73.4,74,29.89,10.0,South,11.5,16.1,N/A,,Clear,180,2012-09-07 16:15:00
11:35 AM,82.4,73.4,74,29.88,10.0,South,9.2,-,N/A,,Clear,180,2012-09-07 16:35:00
11:55 AM,84.2,75.2,74,29.88,10.0,South,11.5,-,N/A,,Clear,190,2012-09-07 16:55:00
12:15 PM,84.2,75.2,74,29.88,10.0,South,11.5,-,N/A,,Clear,190,2012-09-07 17:15:00
12:35 PM,86.0,75.2,70,29.87,10.0,SSW,9.2,-,N/A,,Clear,200,2012-09-07 17:35:00
12:55 PM,87.8,75.2,66,29.86,10.0,South,11.5,-,N/A,,Clear,190,2012-09-07 17:55:00
1:15 PM,87.8,75.2,66,29.85,10.0,SSE,11.5,-,N/A,,Clear,160,2012-09-07 18:15:00
1:35 PM,87.8,77.0,70,29.84,10.0,South,11.5,-,N/A,,Clear,180,2012-09-07 18:35:00
1:55 PM,89.6,77.0,66,29.83,10.0,SSW,16.1,19.6,N/A,,Clear,200,2012-09-07 18:55:00
2:15 PM,89.6,77.0,66,29.82,10.0,South,12.7,-,N/A,,Clear,190,2012-09-07 19:15:00
2:35 PM,91.4,78.8,66,29.81,10.0,South,13.8,-,N/A,,Clear,180,2012-09-07 19:35:00
2:55 PM,91.4,78.8,66,29.79,10.0,South,11.5,-,N/A,,Clear,170,2012-09-07 19:55:00
3:15 PM,91.4,78.8,66,29.78,10.0,South,11.5,17.3,N/A,,Clear,180,2012-09-07 20:15:00
3:35 PM,91.4,77.0,63,29.76,10.0,South,12.7,-,N/A,,Clear,190,2012-09-07 20:35:00
3:55 PM,89.6,77.0,66,29.76,10.0,South,9.2,-,N/A,,Clear,180,2012-09-07 20:55:00
4:15 PM,87.8,77.0,70,29.74,10.0,South,8.1,-,N/A,,Clear,180,2012-09-07 21:15:00
4:55 PM,86.0,78.8,79,29.72,10.0,South,6.9,-,N/A,Thunderstorm,Clear,180,2012-09-07 21:55:00
5:15 PM,86.0,78.8,79,29.71,10.0,South,9.2,-,N/A,Thunderstorm,Clear,180,2012-09-07 22:15:00
5:35 PM,86.0,78.8,79,29.71,5.0,SSW,10.4,-,N/A,Thunderstorm,Thunderstorm,200,2012-09-07 22:35:00
5:55 PM,86.0,78.8,79,29.72,5.0,SSW,9.2,-,N/A,Thunderstorm,Thunderstorm,210,2012-09-07 22:55:00
6:15 PM,75.2,69.8,83,29.75,10.0,West,25.3,34.5,0.04,Thunderstorm,Thunderstorm,270,2012-09-07 23:15:00
6:35 PM,75.2,69.8,83,29.76,10.0,SSW,17.3,33.4,0.20,Thunderstorm,Thunderstorm,210,2012-09-07 23:35:00
6:55 PM,75.2,71.6,89,29.76,8.0,South,12.7,20.7,0.22,Thunderstorm,Thunderstorm,190,2012-09-07 23:55:00
7:15 PM,75.2,71.6,89,29.72,9.0,South,17.3,27.6,N/A,Thunderstorm,Clear,180,2012-09-08 00:15:00
7:35 PM,73.4,69.8,88,29.71,10.0,South,19.6,-,N/A,,Clear,170,2012-09-08 00:35:00
7:55 PM,75.2,69.8,83,29.72,10.0,SSE,15.0,-,N/A,Thunderstorm,Clear,160,2012-09-08 00:55:00
8:15 PM,73.4,69.8,88,29.82,9.0,North,24.2,38.0,0.06,Thunderstorm,Thunderstorm,350,2012-09-08 01:15:00
8:35 PM,69.8,69.8,100,29.84,7.0,West,13.8,26.5,0.67,Thunderstorm,Thunderstorm,270,2012-09-08 01:35:00
8:55 PM,71.6,69.8,94,29.83,10.0,West,4.6,-,0.69,Thunderstorm,Thunderstorm,280,2012-09-08 01:55:00
9:15 PM,71.6,69.8,94,29.83,10.0,West,9.2,-,N/A,Thunderstorm,Partly Cloudy,260,2012-09-08 02:15:00
9:35 PM,71.6,69.8,94,29.83,10.0,West,9.2,-,0.02,Thunderstorm,Mostly Cloudy,270,2012-09-08 02:35:00
9:55 PM,71.6,71.6,100,29.81,10.0,SSW,9.2,-,0.09,Thunderstorm,Thunderstorm,210,2012-09-08 02:55:00
10:15 PM,71.6,71.6,100,29.80,10.0,South,10.4,-,0.04,,Overcast,180,2012-09-08 03:15:00
10:35 PM,71.6,71.6,100,29.84,10.0,West,9.2,-,0.06,,Overcast,260,2012-09-08 03:35:00
10:55 PM,71.6,71.6,100,29.84,10.0,WSW,9.2,-,0.07,,Mostly Cloudy,240,2012-09-08 03:55:00
11:35 PM,71.6,71.6,100,29.85,10.0,West,5.8,-,N/A,,Partly Cloudy,270,2012-09-08 04:35:00
11:55 PM,71.6,71.6,100,29.87,10.0,NW,6.9,-,N/A,,Scattered Clouds,310,2012-09-08 04:55:00